DW5375 Weather Reports


Display with metric or nautical units.
time (UTC)temp
F
wind
direction
speed
MPH
gust
MPH
rain 1hr
in
rain 24hr
in
rain mn
in
humidity
%
barometer
mb
20260506133005 0 205 4.0 9.0 0.00 0.00 0.00 1018.8
20260506131504 0 202 7.0 11.0 0.00 0.00 0.00 1018.6
20260506130057 0 183 9.0 14.0 0.00 0.00 0.00 1018.5
20260506124552 0 215 7.0 11.0 0.00 0.00 0.00 1018.7
20260506123047 0 217 6.0 17.0 0.00 0.00 0.00 1018.6
20260506121542 0 212 8.0 13.0 0.00 0.00 0.00 1018.7
20260506120039 0 214 8.0 14.0 0.00 0.00 0.00 1018.4
20260506114534 0 214 10.0 15.0 0.00 0.00 0.00 1018.1
20260506113031 0 15 9.0 14.0 0.00 0.00 0.00 1018.0
20260506111525 0 182 8.0 14.0 0.00 0.00 0.00 1018.1
20260506110021 0 209 9.0 17.0 0.00 0.00 0.00 1017.9
20260506104517 0 200 8.0 14.0 0.00 0.00 0.00 1017.8
20260506103012 0 201 9.0 15.0 0.00 0.00 0.00 1017.6
20260506101507 0 202 10.0 13.0 0.00 0.00 0.00 1017.4
20260506100004 0 247 11.0 16.0 0.00 0.00 0.00 1017.3
20260506094613 0 195 9.0 20.0 0.00 0.00 0.00 1017.3
20260506093054 0 188 10.0 17.0 0.00 0.00 0.00 1017.3
20260506091551 0 187 9.0 17.0 0.00 0.00 0.00 1017.1
20260506090045 0 196 9.0 14.0 0.00 0.00 0.00 1017.0
20260506084541 0 195 9.0 15.0 0.00 0.00 0.00 1017.0
20260506083038 0 197 9.0 15.0 0.00 0.00 0.00 1017.0
20260506081532 0 192 8.0 16.0 0.00 0.00 0.00 1017.0
20260506073019 0 224 6.0 12.0 0.00 0.00 0.00 1016.5
20260506071516 0 205 6.0 11.0 0.00 0.00 0.00 1016.4
20260506061604 0 210 6.0 10.0 0.00 0.00 0.00 1016.2
20260506044539 0 192 4.0 10.0 0.00 0.00 0.00 1015.6
20260506043027 0 211 5.0 7.0 0.00 0.00 0.00 1015.5
20260506041528 0 188 5.0 7.0 0.00 0.00 0.00 1015.4
20260506040018 0 185 5.0 9.0 0.00 0.00 0.00 1015.2
20260506034513 0 202 4.0 8.0 0.00 0.00 0.00 1015.0
20260506033009 0 191 6.0 10.0 0.00 0.00 0.00 1014.9
20260506031507 0 182 6.0 12.0 0.00 0.00 0.00 1014.9
20260506030104 0 196 7.0 11.0 0.00 0.00 0.00 1014.8
20260506024614 0 167 7.0 14.0 0.00 0.00 0.00 1014.8
20260506023054 0 199 7.0 11.0 0.00 0.00 0.00 1014.9
20260506021555 0 180 9.0 13.0 0.00 0.00 0.00 1014.9
20260506020042 0 198 7.0 12.0 0.00 0.00 0.00 1014.9
20260506014537 0 192 8.0 11.0 0.00 0.00 0.00 1014.9
20260506013037 0 192 6.0 10.0 0.00 0.00 0.00 1015.0
20260506011548 0 207 8.0 11.0 0.00 0.00 0.00 1015.1
20260506010027 0 209 8.0 10.0 0.00 0.00 0.00 1015.1
20260506004534 0 201 7.0 10.0 0.00 0.00 0.00 1015.1
20260506003015 0 196 7.0 9.0 0.00 0.00 0.00 1015.1
20260506001512 0 210 7.0 9.0 0.00 0.00 0.00 1015.2
20260506000007 0 205 7.0 9.0 0.00 0.00 0.00 1015.4
20260505234502 0 202 7.0 11.0 0.00 0.00 0.00 1015.5
20260505233058 0 204 8.0 10.0 0.00 0.00 0.00 1015.7
20260505231555 0 200 7.0 10.0 0.00 0.00 0.00 1015.8
20260505230052 0 186 9.0 12.0 0.00 0.00 0.00 1015.9
20260505224545 0 201 7.0 9.0 0.00 0.00 0.00 1016.0
20260505223040 0 203 6.0 9.0 0.00 0.00 0.00 1016.1
20260505221536 0 209 7.0 10.0 0.00 0.00 0.00 1016.2
20260505220048 0 213 7.0 8.0 0.00 0.00 0.00 1016.3
20260505214532 0 196 7.0 8.0 0.00 0.00 0.00 1016.4
20260505213024 0 200 7.0 10.0 0.00 0.00 0.00 1016.4
20260505211518 0 203 6.0 7.0 0.00 0.00 0.00 1016.5
20260505210014 0 208 6.0 7.0 0.00 0.00 0.00 1016.6
20260505204510 0 188 6.0 7.0 0.00 0.00 0.00 1016.7
20260505203008 0 205 6.0 7.0 0.00 0.00 0.00 1016.7
20260505201600 0 175 5.0 7.0 0.00 0.00 0.00 1016.7
20260505200056 0 188 5.0 8.0 0.00 0.00 0.00 1016.6
20260505194559 0 184 5.0 7.0 0.00 0.00 0.00 1016.7
20260505193047 0 207 6.0 7.0 0.00 0.00 0.00 1016.7
20260505191542 0 215 4.0 7.0 0.00 0.00 0.00 1016.7
20260505190038 0 207 3.0 6.0 0.00 0.00 0.00 1016.6
20260505184534 0 185 5.0 7.0 0.00 0.00 0.00 1016.7
20260505183038 0 196 4.0 7.0 0.00 0.00 0.00 1016.6
20260505181528 0 213 4.0 6.0 0.00 0.00 0.00 1016.6
20260505180024 0 215 4.0 5.0 0.00 0.00 0.00 1016.5
20260505174516 0 186 3.0 7.0 0.00 0.00 0.00 1016.5
20260505173011 0 192 5.0 7.0 0.00 0.00 0.00 1016.5
20260505171508 0 188 5.0 7.0 0.00 0.00 0.00 1016.3
20260505170003 0 203 6.0 8.0 0.00 0.00 0.00 1016.3
20260505164603 0 200 5.0 7.0 0.00 0.00 0.00 1016.2
20260505163054 0 190 4.0 5.0 0.00 0.00 0.00 1016.1
20260505161556 0 191 2.0 5.0 0.00 0.00 0.00 1016.1
20260505153040 0 205 4.0 7.0 0.00 0.00 0.00 1015.9
20260505151534 0 188 4.0 7.0 0.00 0.00 0.00 1015.8